Location: Barrio Las Umbrías
(40.4173°N, 4.8685°W)
Time: 13:13:13
(UTC+00:00)

NOSS 3-2 (A) - Pass Details

Date: 17 August 2022
Orbit: 748 x 1459 km, 63.4° (Epoch: 27 August)

Event Time Altitude Azimuth Distance (km) Brightness Sun altitude
Rises 23:30:20 0° 326° (NW) 3,991 7.6 -35.0°
Reaches altitude 10° 23:32:54 10° 328° (NNW) 3,122 6.9 -35.1°
Enters shadow 23:40:18 78° 29° (NNE) 1,354 4.1 -35.5°
